When you browse on this site, cookies collect data to enhance your experience and personalize the content and advertising you see.
Visit our Privacy Policy to learn more. By continuing to use the site, you agree to this use of cookies and data.
  • In Schweiz
  • Länderverzeichnis
  • Für 7 Tage
  • Wassertemperatur
  • Wetterkarte
  • Widgets
  • user-avatar
    Anmelden

    Stündliche Wetter York

    Heute, 8 Dezember, Sonntag

    Zeit Temperatur Niederschläge Wind Luftdruck Luftfeuchtigkeit
    00:00 +8°C° 0 mm 10 m/S 744 mmHg 83%
    01:00 +9°C° 0.4 mm 10 m/S 742 mmHg 83%
    02:00 +9°C° 0.4 mm 10 m/S 741 mmHg 83%
    03:00 +11°C° 0.4 mm 10 m/S 740 mmHg 83%
    04:00 +10°C° 0 mm 9 m/S 741 mmHg 79%
    05:00 +7°C° 0 mm 8 m/S 741 mmHg 76%
    06:00 +6°C° 0 mm 8 m/S 742 mmHg 72%
    07:00 +6°C° 0 mm 8 m/S 742 mmHg 72%
    08:00 +5°C° 0 mm 7 m/S 742 mmHg 72%
    09:00 +5°C° 0 mm 7 m/S 742 mmHg 72%
    10:00 +5°C° 0.1 mm 8 m/S 742 mmHg 69%
    11:00 +6°C° 0.1 mm 9 m/S 742 mmHg 67%
    12:00 +6°C° 0.1 mm 10 m/S 742 mmHg 65%
    13:00 +6°C° 0.1 mm 9 m/S 741 mmHg 66%
    14:00 +5°C° 0.1 mm 9 m/S 741 mmHg 66%
    15:00 +5°C° 0.1 mm 9 m/S 740 mmHg 67%
    16:00 +4°C° 0 mm 8 m/S 739 mmHg 70%
    17:00 +4°C° 0 mm 8 m/S 739 mmHg 72%
    18:00 +4°C° 0 mm 8 m/S 739 mmHg 74%
    19:00 +3°C° 0 mm 7 m/S 738 mmHg 77%
    20:00 +3°C° 0 mm 7 m/S 737 mmHg 79%
    21:00 +3°C° 0 mm 7 m/S 737 mmHg 81%
    22:00 +3°C° 0.1 mm 6 m/S 736 mmHg 80%
    23:00 +4°C° 0.1 mm 6 m/S 736 mmHg 79%

    Morgen, 9 Dezember, Montag

    Zeit Temperatur Niederschläge Wind Luftdruck Luftfeuchtigkeit
    00:00 +5°C° 0.1 mm 5 m/S 736 mmHg 79%
    01:00 +4°C° 0 mm 6 m/S 736 mmHg 76%
    02:00 +4°C° 0 mm 8 m/S 737 mmHg 73%
    03:00 +5°C° 0 mm 9 m/S 738 mmHg 70%
    04:00 +5°C° 0.1 mm 10 m/S 740 mmHg 69%
    05:00 +3°C° 0.1 mm 12 m/S 742 mmHg 67%
    06:00 +3°C° 0.1 mm 13 m/S 744 mmHg 66%
    07:00 +3°C° 0 mm 11 m/S 746 mmHg 65%
    08:00 +2°C° 0 mm 10 m/S 749 mmHg 64%
    09:00 +2°C° 0 mm 9 m/S 751 mmHg 63%
    10:00 +2°C° 0 mm 9 m/S 753 mmHg 61%
    11:00 +2°C° 0 mm 9 m/S 755 mmHg 58%
    12:00 +4°C° 0 mm 8 m/S 756 mmHg 56%
    13:00 +3°C° 0 mm 7 m/S 757 mmHg 58%
    14:00 +3°C° 0 mm 6 m/S 758 mmHg 60%
    15:00 +2°C° 0 mm 5 m/S 759 mmHg 62%
    16:00 +3°C° 0 mm 4 m/S 760 mmHg 64%
    17:00 +1°C° 0 mm 4 m/S 761 mmHg 66%
    18:00 +1°C° 0 mm 3 m/S 763 mmHg 68%
    19:00 +1°C° 0 mm 3 m/S 763 mmHg 71%
    20:00 +2°C° 0 mm 2 m/S 763 mmHg 74%
    21:00 +2°C° 0 mm 1 m/S 764 mmHg 76%
    22:00 +2°C° 0 mm 2 m/S 764 mmHg 79%
    23:00 +2°C° 0 mm 2 m/S 764 mmHg 81%

    übermorgen, 10 Dezember, Dienstag

    Zeit Temperatur Niederschläge Wind Luftdruck Luftfeuchtigkeit
    00:00 +2°C° 0 mm 2 m/S 764 mmHg 84%
    01:00 +1°C° 0 mm 3 m/S 763 mmHg 84%
    02:00 +1°C° 0 mm 3 m/S 762 mmHg 85%
    03:00 +1°C° 0 mm 4 m/S 762 mmHg 85%
    04:00 +1°C° 0 mm 5 m/S 760 mmHg 85%
    05:00 +2°C° 0 mm 5 m/S 759 mmHg 85%
    06:00 +2°C° 0 mm 6 m/S 758 mmHg 86%
    07:00 +3°C° 0.1 mm 7 m/S 757 mmHg 85%
    08:00 +4°C° 0.1 mm 8 m/S 756 mmHg 85%
    09:00 +3°C° 0.1 mm 9 m/S 754 mmHg 85%
    10:00 +5°C° 0.6 mm 10 m/S 753 mmHg 85%
    11:00 +6°C° 0.6 mm 11 m/S 751 mmHg 85%
    12:00 +7°C° 0.6 mm 11 m/S 749 mmHg 85%
    13:00 +8°C° 0.2 mm 11 m/S 748 mmHg 85%
    14:00 +9°C° 0.2 mm 11 m/S 746 mmHg 84%
    15:00 +9°C° 0.2 mm 11 m/S 745 mmHg 84%
    16:00 +8°C° 1 mm 10 m/S 746 mmHg 84%
    17:00 +6°C° 1 mm 9 m/S 746 mmHg 83%
    18:00 +5°C° 1 mm 8 m/S 747 mmHg 83%
    19:00 +5°C° 0.1 mm 7 m/S 748 mmHg 80%
    20:00 +4°C° 0.1 mm 7 m/S 749 mmHg 76%
    21:00 +4°C° 0.1 mm 6 m/S 750 mmHg 73%
    22:00 +4°C° 0 mm 6 m/S 750 mmHg 73%
    23:00 +3°C° 0 mm 5 m/S 751 mmHg 74%

    11 Dezember, Mittwoch

    Zeit Temperatur Niederschläge Wind Luftdruck Luftfeuchtigkeit
    00:00 +3°C° 0 mm 5 m/S 751 mmHg 75%
    01:00 +3°C° 0 mm 5 m/S 751 mmHg 75%
    02:00 +3°C° 0 mm 5 m/S 751 mmHg 76%
    03:00 +3°C° 0 mm 4 m/S 751 mmHg 77%
    04:00 +2°C° 0 mm 5 m/S 751 mmHg 78%
    05:00 +2°C° 0 mm 5 m/S 751 mmHg 78%
    06:00 +2°C° 0 mm 5 m/S 750 mmHg 79%
    07:00 +2°C° 0 mm 5 m/S 750 mmHg 81%
    08:00 +2°C° 0 mm 5 m/S 749 mmHg 83%
    09:00 +2°C° 0 mm 5 m/S 749 mmHg 85%
    10:00 +3°C° 0 mm 6 m/S 748 mmHg 82%
    11:00 +3°C° 0 mm 6 m/S 747 mmHg 79%
    12:00 +4°C° 0 mm 6 m/S 746 mmHg 76%
    13:00 +3°C° 0.3 mm 5 m/S 745 mmHg 78%
    14:00 +3°C° 0.3 mm 5 m/S 745 mmHg 79%
    15:00 +2°C° 0.3 mm 5 m/S 744 mmHg 80%
    16:00 +2°C° 0 mm 5 m/S 745 mmHg 80%
    17:00 +1°C° 0 mm 4 m/S 745 mmHg 79%
    18:00 +1°C° 0 mm 4 m/S 745 mmHg 78%
    19:00 +1°C° 0 mm 4 m/S 746 mmHg 77%
    20:00 +1°C° 0 mm 4 m/S 746 mmHg 77%
    21:00 +1°C° 0 mm 4 m/S 746 mmHg 76%
    22:00 +1°C° 0 mm 5 m/S 747 mmHg 75%
    23:00 +1°C° 0 mm 5 m/S 747 mmHg 75%

    12 Dezember, Donnerstag

    Zeit Temperatur Niederschläge Wind Luftdruck Luftfeuchtigkeit
    00:00 +1°C° 0 mm 6 m/S 747 mmHg 74%
    01:00 +1°C° 0 mm 6 m/S 747 mmHg 75%
    02:00 +1°C° 0 mm 5 m/S 747 mmHg 76%
    03:00 +1°C° 0 mm 5 m/S 747 mmHg 77%
    04:00 +1°C° 0 mm 5 m/S 746 mmHg 77%
    05:00 +1°C° 0 mm 6 m/S 745 mmHg 77%
    06:00 +1°C° 0 mm 6 m/S 744 mmHg 76%
    07:00 +2°C° 0.5 mm 6 m/S 743 mmHg 81%
    08:00 +2°C° 0.5 mm 7 m/S 742 mmHg 86%
    09:00 +1°C° 0.5 mm 8 m/S 740 mmHg 91%
    10:00 +2°C° 0.4 mm 8 m/S 738 mmHg 90%
    11:00 +3°C° 0.4 mm 9 m/S 736 mmHg 88%
    12:00 +5°C° 0.4 mm 9 m/S 733 mmHg 86%
    13:00 +6°C° 1.2 mm 9 m/S 732 mmHg 86%
    14:00 +6°C° 1.2 mm 8 m/S 730 mmHg 85%
    15:00 +8°C° 1.2 mm 7 m/S 729 mmHg 84%
    16:00 +6°C° 0.4 mm 7 m/S 728 mmHg 85%
    17:00 +6°C° 0.4 mm 7 m/S 727 mmHg 86%
    18:00 +5°C° 0.4 mm 7 m/S 727 mmHg 88%
    19:00 +5°C° 0.5 mm 7 m/S 726 mmHg 83%
    20:00 +5°C° 0.5 mm 7 m/S 726 mmHg 78%
    21:00 +4°C° 0.5 mm 7 m/S 725 mmHg 73%
    22:00 +4°C° 0 mm 7 m/S 725 mmHg 72%
    23:00 +3°C° 0 mm 7 m/S 725 mmHg 72%

    13 Dezember, Freitag

    Zeit Temperatur Niederschläge Wind Luftdruck Luftfeuchtigkeit
    00:00 +2°C° 0 mm 7 m/S 725 mmHg 72%
    01:00 +1°C° 0 mm 8 m/S 725 mmHg 73%
    02:00 +1°C° 0 mm 9 m/S 724 mmHg 74%
    03:00 +1°C° 0 mm 9 m/S 724 mmHg 76%
    04:00 +1°C° 0.3 mm 10 m/S 725 mmHg 76%
    05:00 +2°C° 0.3 mm 11 m/S 725 mmHg 76%
    06:00 +2°C° 0.3 mm 12 m/S 725 mmHg 76%
    07:00 +2°C° 0.1 mm 12 m/S 726 mmHg 77%
    08:00 +2°C° 0.1 mm 11 m/S 727 mmHg 78%
    09:00 +3°C° 0.1 mm 10 m/S 729 mmHg 79%
    10:00 +3°C° 0.1 mm 9 m/S 730 mmHg 79%
    11:00 +4°C° 0.1 mm 8 m/S 731 mmHg 79%
    12:00 +4°C° 0.1 mm 7 m/S 732 mmHg 79%
    13:00 +4°C° 0 mm 7 m/S 732 mmHg 79%
    14:00 +4°C° 0 mm 7 m/S 733 mmHg 80%
    15:00 +4°C° 0 mm 7 m/S 733 mmHg 81%
    16:00 +2°C° 0.2 mm 8 m/S 734 mmHg 82%
    17:00 +2°C° 0.2 mm 9 m/S 734 mmHg 83%
    18:00 +2°C° 0.2 mm 10 m/S 734 mmHg 83%
    19:00 +1°C° 0.1 mm 9 m/S 735 mmHg 78%
    20:00 +1°C° 0.1 mm 8 m/S 735 mmHg 73%
    21:00 +2°C° 0.1 mm 7 m/S 735 mmHg 69%
    22:00 +2°C° 0 mm 6 m/S 735 mmHg 69%
    23:00 +1°C° 0 mm 6 m/S 735 mmHg 70%
    Mehr zeigen